Regional Weather Roundup
Issued by NWS Spokane, WA

Home | Current Version | Previous Version | Text Only | Print | Product List | Glossary On
Versions: 1 2 3 4 5 6 7 8 9 10 11 12 13 14 15 16 17 18 19 20 21 22 23 24 25 26 27 28 29 30 31 32 33 34 35 36 37 38 39 40 41 42 43 44 45 46 47 48 49 50
000
NZUS01 KOTX 040310
RWROTX
EASTERN WASHINGTON/NORTHERN IDAHO ROUNDUP
NATIONAL WEATHER SERVICE, SPOKANE WA
700 PM PST TUE MAR 03 2015

Note: "fair" indicated few or no clouds below 12,000 feet with no
significant weather and/or obstructions to visibility.

...NORTHEAST WASHINGTON AND NORTHERN IDAHO PANHANDLE...

CITY           SKY/WX    TMP DP  RH WIND       PRES   REMARKS
SPOKANE INTL   CLEAR     31   9  39 SW7       30.11R WCI  24
SPOKANE DOWNTO CLEAR     29  16  58 CALM      30.13R
COEUR D ALENE  CLEAR     28  10  47 S5        30.11S WCI  23
DEER PARK      CLEAR     28  13  53 CALM      30.11S
SANDPOINT      CLEAR     27  16  63 W3        30.12R
BONNERS FERRY  FAIR      27  10  50 NW3       30.10S

...SOUTHEAST WASHINGTON AND SOUTHERN IDAHO PANHANDLE...

CITY           SKY/WX    TMP DP  RH WIND       PRES   REMARKS
WALLA WALLA    CLEAR     36  17  46 SE6       30.20R
PULLMAN/MOSCOW CLEAR     29  16  58 W3        30.15S
LEWISTON       CLEAR     37  15  40 S3        30.18R
LOWELL           N/A     29  21  72 CALM      30.20R

...COLUMBIA BASIN...

CITY           SKY/WX    TMP DP  RH WIND       PRES   REMARKS
EPHRATA        CLEAR     34  16  47 W5        30.16R WCI  30
MOSES LAKE     CLEAR     39  10  30 S6        30.18R
TRI CITIES     CLEAR     38  15  39 S6        30.22R
HERMISTON      CLEAR     30  16  56 S3        30.20S
PENDLETON      CLEAR     37  12  35 CALM      30.18S

...EAST SLOPES CASCADES...

CITY           SKY/WX    TMP DP  RH WIND       PRES   REMARKS
THE DALLES     PTCLDY    42  22  44 CALM      30.20R
YAKIMA         CLEAR     34  19  54 W6        30.18R WCI  29
ELLENSBURG     CLEAR     34  21  59 E5        30.14R WCI  30
WENATCHEE      CLEAR     38  15  39 E8        30.15R
OMAK           CLEAR     31   7  36 NW9       30.17R WCI  23

...SOUTHERN BRITISH COLUMBIA...

CITY           SKY/WX    TMP DP  RH WIND       PRES   REMARKS
PENTICTON      CLEAR     28   7  40 N6        30.21R WCI  22
CRANBROOK      CLEAR     18   9  68 W6        30.10R WCI   9

...WESTERN MONTANA...

CITY           SKY/WX    TMP DP  RH WIND       PRES   REMARKS
MISSOULA       CLOUDY    25   7  46 N6        30.10R WCI  18

...NEIGHBORING CITIES...

CITY           SKY/WX    TMP DP  RH WIND       PRES   REMARKS
SEATTLE        PTCLDY    43  15  32 N3        30.23R
CALGARY        CLEAR     12  -6  44 NW3       30.09R



USA.gov is the U.S. government's official web portal to all federal, state and local government web resources and services.